| time (UTC) | temp C | wind direction | speed KPH | gust KPH | rain 1hr cm | rain 24hr cm | rain mn cm | humidity % | barometer mb |
| 20260504081858 | 12 | 238 | 3.2 | 4.8 | 0.00 | 0.00 | 0.00 | 55 | 1102.0 |
| 20260504081354 | 12 | 274 | 4.8 | 4.8 | 0.00 | 0.00 | 0.00 | 55 | 1102.1 |
| 20260504080850 | 12 | 245 | 3.2 | 4.8 | 0.00 | 0.00 | 0.00 | 55 | 1102.1 |
| 20260504080348 | 12 | 247 | 3.2 | 4.8 | 0.00 | 0.00 | 0.00 | 56 | 1102.0 |
| 20260504070315 | 12 | 14 | 4.8 | 4.8 | 0.00 | 0.00 | 0.00 | 57 | 1102.3 |
| 20260504060235 | 12 | 345 | 6.4 | 9.7 | 0.00 | 0.00 | 0.00 | 56 | 1102.8 |
| 20260504050703 | 11 | 229 | 4.8 | 8.0 | 0.00 | 0.00 | 0.00 | 60 | 1103.0 |
| 20260504050200 | 11 | 182 | 4.8 | 8.0 | 0.00 | 0.00 | 0.00 | 59 | 1103.2 |
| 20260504045658 | 11 | 216 | 4.8 | 4.8 | 0.00 | 0.00 | 0.00 | 61 | 1103.2 |
| 20260504045157 | 11 | 216 | 4.8 | 4.8 | 0.00 | 0.00 | 0.00 | 62 | 1103.2 |
| 20260504044655 | 11 | 190 | 4.8 | 4.8 | 0.00 | 0.00 | 0.00 | 63 | 1103.2 |
| 20260504044152 | 11 | 160 | 4.8 | 4.8 | 0.00 | 0.00 | 0.00 | 63 | 1103.1 |
| 20260504043649 | 11 | 175 | 0.0 | 1.6 | 0.00 | 0.00 | 0.00 | 63 | 1103.2 |
| 20260504043146 | 11 | 149 | 3.2 | 4.8 | 0.00 | 0.00 | 0.00 | 62 | 1102.8 |
| 20260504042644 | 11 | 147 | 3.2 | 9.7 | 0.00 | 0.00 | 0.00 | 63 | 1103.0 |
| 20260504042140 | 10 | 141 | 4.8 | 8.0 | 0.00 | 0.00 | 0.00 | 62 | 1103.0 |
| 20260504041636 | 11 | 146 | 3.2 | 8.0 | 0.00 | 0.00 | 0.00 | 62 | 1103.1 |
| 20260504041132 | 11 | 146 | 1.6 | 4.8 | 0.00 | 0.00 | 0.00 | 61 | 1102.8 |
| 20260504040630 | 11 | 154 | 1.6 | 8.0 | 0.00 | 0.00 | 0.00 | 60 | 1102.7 |
| 20260504040127 | 11 | 146 | 4.8 | 9.7 | 0.00 | 0.00 | 0.00 | 59 | 1102.7 |
| 20260504035623 | 11 | 134 | 3.2 | 8.0 | 0.00 | 0.00 | 0.00 | 58 | 1102.8 |
| 20260504035120 | 11 | 134 | 3.2 | 4.8 | 0.00 | 0.00 | 0.00 | 59 | 1102.6 |
| 20260504034618 | 11 | 145 | 1.6 | 3.2 | 0.00 | 0.00 | 0.00 | 60 | 1102.7 |
| 20260504034114 | 11 | 57 | 4.8 | 4.8 | 0.00 | 0.00 | 0.00 | 61 | 1102.6 |
| 20260504033612 | 11 | 53 | 1.6 | 3.2 | 0.00 | 0.00 | 0.00 | 58 | 1102.5 |
| 20260504033109 | 11 | 140 | 3.2 | 3.2 | 0.00 | 0.00 | 0.00 | 56 | 1102.5 |
| 20260504032606 | 11 | 57 | 3.2 | 4.8 | 0.00 | 0.00 | 0.00 | 58 | 1102.6 |
| 20260504032103 | 11 | 56 | 4.8 | 4.8 | 0.00 | 0.00 | 0.00 | 59 | 1102.6 |
| 20260504031600 | 11 | 72 | 4.8 | 8.0 | 0.00 | 0.00 | 0.00 | 60 | 1102.6 |
| 20260504031056 | 11 | 65 | 6.4 | 8.0 | 0.00 | 0.00 | 0.00 | 62 | 1102.5 |
| 20260504030553 | 11 | 68 | 4.8 | 8.0 | 0.00 | 0.00 | 0.00 | 60 | 1102.4 |
| 20260504030049 | 11 | 62 | 4.8 | 8.0 | 0.00 | 0.00 | 0.00 | 59 | 1102.8 |
| 20260504025547 | 11 | 63 | 4.8 | 4.8 | 0.00 | 0.00 | 0.00 | 59 | 1102.7 |
| 20260504025044 | 11 | 95 | 0.0 | 1.6 | 0.00 | 0.00 | 0.00 | 58 | 1102.6 |
| 20260504024541 | 11 | 53 | 3.2 | 3.2 | 0.00 | 0.00 | 0.00 | 59 | 1102.8 |
| 20260504024038 | 12 | 46 | 3.2 | 3.2 | 0.00 | 0.00 | 0.00 | 57 | 1102.8 |
| 20260504023534 | 12 | 354 | 0.0 | 1.6 | 0.00 | 0.00 | 0.00 | 53 | 1102.8 |
| 20260504023030 | 12 | 354 | 0.0 | 0.0 | 0.00 | 0.00 | 0.00 | 52 | 1102.5 |
| 20260504022526 | 12 | 354 | 0.0 | 1.6 | 0.00 | 0.00 | 0.00 | 53 | 1102.7 |
| 20260504022023 | 12 | 354 | 0.0 | 0.0 | 0.00 | 0.00 | 0.00 | 54 | 1102.5 |
| 20260504021520 | 12 | 354 | 0.0 | 0.0 | 0.00 | 0.00 | 0.00 | 53 | 1102.7 |
| 20260504021017 | 13 | 354 | 0.0 | 1.6 | 0.00 | 0.00 | 0.00 | 51 | 1102.5 |
| 20260504020514 | 13 | 354 | 0.0 | 0.0 | 0.00 | 0.00 | 0.00 | 51 | 1102.4 |
| 20260504020011 | 13 | 354 | 0.0 | 1.6 | 0.00 | 0.00 | 0.00 | 51 | 1102.4 |
| 20260504015507 | 13 | 354 | 0.0 | 1.6 | 0.00 | 0.00 | 0.00 | 50 | 1102.4 |
| 20260504015003 | 13 | 353 | 1.6 | 1.6 | 0.00 | 0.00 | 0.00 | 49 | 1102.4 |
| 20260504014459 | 13 | 349 | 1.6 | 3.2 | 0.00 | 0.00 | 0.00 | 49 | 1102.5 |
| 20260504013956 | 13 | 347 | 3.2 | 3.2 | 0.00 | 0.00 | 0.00 | 49 | 1102.4 |
| 20260504013455 | 13 | 352 | 3.2 | 3.2 | 0.00 | 0.00 | 0.00 | 49 | 1102.5 |
| 20260504012950 | 13 | 0 | 3.2 | 4.8 | 0.00 | 0.00 | 0.00 | 49 | 1102.3 |
| 20260504012448 | 13 | 356 | 3.2 | 3.2 | 0.00 | 0.00 | 0.00 | 50 | 1102.2 |
| 20260504011946 | 13 | 340 | 3.2 | 4.8 | 0.00 | 0.00 | 0.00 | 50 | 1102.3 |
| 20260504011442 | 13 | 3 | 3.2 | 3.2 | 0.00 | 0.00 | 0.00 | 50 | 1102.2 |
| 20260504010938 | 13 | 4 | 1.6 | 3.2 | 0.00 | 0.00 | 0.00 | 50 | 1102.2 |
| 20260504010434 | 13 | 355 | 3.2 | 3.2 | 0.00 | 0.00 | 0.00 | 49 | 1102.3 |
| 20260504005930 | 13 | 344 | 4.8 | 8.0 | 0.00 | 0.00 | 0.00 | 49 | 1102.2 |
| 20260504005427 | 13 | 341 | 4.8 | 8.0 | 0.00 | 0.00 | 0.00 | 49 | 1102.2 |
| 20260504004925 | 13 | 325 | 4.8 | 8.0 | 0.00 | 0.00 | 0.00 | 49 | 1102.0 |
| 20260504004422 | 13 | 351 | 4.8 | 8.0 | 0.00 | 0.00 | 0.00 | 49 | 1101.9 |
| 20260504003919 | 13 | 352 | 4.8 | 8.0 | 0.00 | 0.00 | 0.00 | 50 | 1101.9 |
| 20260504003415 | 13 | 352 | 6.4 | 9.7 | 0.00 | 0.00 | 0.00 | 50 | 1102.0 |
| 20260504002912 | 13 | 302 | 3.2 | 3.2 | 0.00 | 0.00 | 0.00 | 50 | 1101.8 |
| 20260504002409 | 13 | 232 | 3.2 | 4.8 | 0.00 | 0.00 | 0.00 | 50 | 1101.8 |
| 20260504001907 | 13 | 234 | 3.2 | 3.2 | 0.00 | 0.00 | 0.00 | 48 | 1101.8 |
| 20260504001404 | 14 | 325 | 4.8 | 4.8 | 0.00 | 0.00 | 0.00 | 49 | 1101.8 |
| 20260504000900 | 14 | 240 | 4.8 | 4.8 | 0.00 | 0.00 | 0.00 | 48 | 1101.9 |
| 20260504000357 | 14 | 232 | 4.8 | 4.8 | 0.00 | 0.00 | 0.00 | 48 | 1102.0 |
| 20260503235855 | 14 | 277 | 4.8 | 9.7 | 0.00 | 0.00 | 0.00 | 50 | 1101.9 |
| 20260503235353 | 15 | 263 | 4.8 | 4.8 | 0.00 | 0.00 | 0.00 | 50 | 1101.9 |
| 20260503234850 | 15 | 230 | 4.8 | 4.8 | 0.00 | 0.00 | 0.00 | 49 | 1101.9 |
| 20260503234348 | 15 | 257 | 6.4 | 8.0 | 0.00 | 0.00 | 0.00 | 47 | 1101.9 |
| 20260503233845 | 15 | 323 | 6.4 | 9.7 | 0.00 | 0.00 | 0.00 | 46 | 1102.0 |
| 20260503233341 | 15 | 222 | 8.0 | 9.7 | 0.00 | 0.00 | 0.00 | 45 | 1102.0 |
| 20260503232838 | 15 | 312 | 4.8 | 9.7 | 0.00 | 0.00 | 0.00 | 46 | 1102.1 |
| 20260503232335 | 15 | 308 | 4.8 | 12.9 | 0.00 | 0.00 | 0.00 | 45 | 1101.8 |
| 20260503231833 | 15 | 257 | 4.8 | 8.0 | 0.00 | 0.00 | 0.00 | 47 | 1101.8 |
| 20260503231330 | 15 | 345 | 1.6 | 4.8 | 0.00 | 0.00 | 0.00 | 48 | 1101.8 |
| 20260503230825 | 16 | 238 | 4.8 | 11.3 | 0.00 | 0.00 | 0.00 | 45 | 1101.9 |
| 20260503230323 | 16 | 344 | 4.8 | 8.0 | 0.00 | 0.00 | 0.00 | 45 | 1102.0 |
| 20260503225820 | 15 | 351 | 3.2 | 4.8 | 0.00 | 0.00 | 0.00 | 45 | 1102.0 |
| 20260503225316 | 16 | 23 | 8.0 | 11.3 | 0.00 | 0.00 | 0.00 | 39 | 1102.0 |
| 20260503224813 | 16 | 6 | 8.0 | 11.3 | 0.00 | 0.00 | 0.00 | 41 | 1102.0 |
| 20260503224310 | 15 | 229 | 6.4 | 9.7 | 0.00 | 0.00 | 0.00 | 41 | 1102.0 |
| 20260503223808 | 16 | 249 | 8.0 | 11.3 | 0.00 | 0.00 | 0.00 | 41 | 1101.9 |
| 20260503223305 | 16 | 158 | 8.0 | 12.9 | 0.00 | 0.00 | 0.00 | 43 | 1102.1 |
| 20260503222801 | 16 | 207 | 4.8 | 9.7 | 0.00 | 0.00 | 0.00 | 45 | 1102.1 |
| 20260503222259 | 16 | 321 | 3.2 | 8.0 | 0.00 | 0.00 | 0.00 | 47 | 1102.0 |
| 20260503221757 | 15 | 249 | 4.8 | 11.3 | 0.00 | 0.00 | 0.00 | 46 | 1102.0 |
| 20260503221255 | 16 | 167 | 8.0 | 12.9 | 0.00 | 0.00 | 0.00 | 43 | 1102.1 |
| 20260503220751 | 16 | 209 | 6.4 | 12.9 | 0.00 | 0.00 | 0.00 | 45 | 1102.1 |
| 20260503220248 | 16 | 34 | 14.5 | 22.5 | 0.00 | 0.00 | 0.00 | 42 | 1102.0 |
| 20260503215745 | 16 | 16 | 4.8 | 9.7 | 0.00 | 0.00 | 0.00 | 44 | 1102.0 |
| 20260503215242 | 16 | 163 | 11.3 | 12.9 | 0.00 | 0.00 | 0.00 | 42 | 1102.2 |
| 20260503214740 | 16 | 247 | 6.4 | 9.7 | 0.00 | 0.00 | 0.00 | 44 | 1102.0 |
| 20260503214236 | 16 | 273 | 4.8 | 11.3 | 0.00 | 0.00 | 0.00 | 42 | 1102.1 |
| 20260503213735 | 16 | 189 | 8.0 | 17.7 | 0.00 | 0.00 | 0.00 | 41 | 1102.1 |
| 20260503213232 | 15 | 0 | 4.8 | 9.7 | 0.00 | 0.00 | 0.00 | 42 | 1102.2 |
| 20260503212728 | 16 | 245 | 8.0 | 16.1 | 0.00 | 0.00 | 0.00 | 39 | 1102.2 |
| 20260503212226 | 16 | 118 | 6.4 | 9.7 | 0.00 | 0.00 | 0.00 | 40 | 1102.2 |
| 20260503211723 | 15 | 190 | 4.8 | 20.9 | 0.00 | 0.00 | 0.00 | 40 | 1102.4 |
| 20260503211219 | 16 | 220 | 6.4 | 12.9 | 0.00 | 0.00 | 0.00 | 38 | 1102.3 |
| 20260503210715 | 16 | 310 | 11.3 | 14.5 | 0.00 | 0.00 | 0.00 | 39 | 1102.4 |
| 20260503210213 | 16 | 251 | 8.0 | 9.7 | 0.00 | 0.00 | 0.00 | 41 | 1102.3 |
| 20260503205708 | 16 | 84 | 6.4 | 16.1 | 0.00 | 0.00 | 0.00 | 40 | 1102.4 |
| 20260503205204 | 16 | 347 | 6.4 | 11.3 | 0.00 | 0.00 | 0.00 | 38 | 1102.8 |
| 20260503204701 | 17 | 220 | 4.8 | 14.5 | 0.00 | 0.00 | 0.00 | 39 | 1102.5 |
| 20260503204159 | 16 | 175 | 3.2 | 14.5 | 0.00 | 0.00 | 0.00 | 43 | 1102.5 |
| 20260503203655 | 17 | 167 | 8.0 | 17.7 | 0.00 | 0.00 | 0.00 | 38 | 1102.5 |
| 20260503203153 | 16 | 253 | 6.4 | 11.3 | 0.00 | 0.00 | 0.00 | 43 | 1102.5 |
| 20260503202650 | 15 | 234 | 6.4 | 16.1 | 0.00 | 0.00 | 0.00 | 43 | 1102.6 |
| 20260503202148 | 16 | 7 | 4.8 | 11.3 | 0.00 | 0.00 | 0.00 | 45 | 1102.7 |
| 20260503201646 | 15 | 356 | 4.8 | 9.7 | 0.00 | 0.00 | 0.00 | 48 | 1102.7 |
| 20260503201143 | 16 | 262 | 4.8 | 12.9 | 0.00 | 0.00 | 0.00 | 44 | 1102.8 |
| 20260503200639 | 15 | 288 | 8.0 | 17.7 | 0.00 | 0.00 | 0.00 | 47 | 1103.0 |
| 20260503200135 | 16 | 258 | 9.7 | 14.5 | 0.00 | 0.00 | 0.00 | 44 | 1103.3 |
| 20260503195633 | 17 | 240 | 11.3 | 16.1 | 0.00 | 0.00 | 0.00 | 42 | 1103.2 |
| 20260503195130 | 17 | 268 | 8.0 | 24.1 | 0.00 | 0.00 | 0.00 | 43 | 1103.4 |
| 20260503194627 | 16 | 153 | 9.7 | 17.7 | 0.00 | 0.00 | 0.00 | 43 | 1103.4 |
| 20260503194122 | 17 | 167 | 6.4 | 16.1 | 0.00 | 0.00 | 0.00 | 44 | 1103.5 |
| 20260503193619 | 17 | 224 | 8.0 | 16.1 | 0.00 | 0.00 | 0.00 | 43 | 1103.4 |
| 20260503193114 | 18 | 172 | 8.0 | 17.7 | 0.00 | 0.00 | 0.00 | 41 | 1103.4 |
| 20260503192610 | 16 | 69 | 1.6 | 9.7 | 0.00 | 0.00 | 0.00 | 46 | 1103.4 |
| 20260503192106 | 17 | 192 | 14.5 | 17.7 | 0.00 | 0.00 | 0.00 | 42 | 1103.5 |
| 20260503191603 | 16 | 58 | 6.4 | 12.9 | 0.00 | 0.00 | 0.00 | 44 | 1103.7 |
| 20260503191100 | 16 | 137 | 12.9 | 16.1 | 0.00 | 0.00 | 0.00 | 43 | 1103.7 |
| 20260503190557 | 16 | 189 | 6.4 | 20.9 | 0.00 | 0.00 | 0.00 | 44 | 1103.9 |
| 20260503190054 | 14 | 206 | 8.0 | 12.9 | 0.00 | 0.00 | 0.00 | 46 | 1103.8 |
| 20260503185550 | 16 | 215 | 8.0 | 12.9 | 0.00 | 0.00 | 0.00 | 45 | 1103.7 |
| 20260503185050 | 14 | 155 | 3.2 | 4.8 | 0.00 | 0.00 | 0.00 | 45 | 1103.9 |
| 20260503184546 | 16 | 188 | 8.0 | 22.5 | 0.00 | 0.00 | 0.00 | 43 | 1103.9 |
| 20260503184043 | 16 | 319 | 6.4 | 9.7 | 0.00 | 0.00 | 0.00 | 45 | 1103.8 |
| 20260503183539 | 16 | 153 | 8.0 | 12.9 | 0.00 | 0.00 | 0.00 | 45 | 1103.9 |
| 20260503183037 | 16 | 129 | 8.0 | 16.1 | 0.00 | 0.00 | 0.00 | 43 | 1104.2 |
| 20260503182536 | 16 | 140 | 3.2 | 8.0 | 0.00 | 0.00 | 0.00 | 46 | 1104.1 |
| 20260503182033 | 16 | 146 | 3.2 | 8.0 | 0.00 | 0.00 | 0.00 | 46 | 1103.9 |
| 20260503181529 | 16 | 175 | 4.8 | 11.3 | 0.00 | 0.00 | 0.00 | 45 | 1104.2 |
| 20260503181026 | 15 | 149 | 4.8 | 11.3 | 0.00 | 0.00 | 0.00 | 47 | 1104.2 |
| 20260503180523 | 14 | 265 | 8.0 | 12.9 | 0.00 | 0.00 | 0.00 | 49 | 1104.3 |
| 20260503180020 | 15 | 290 | 3.2 | 8.0 | 0.00 | 0.00 | 0.00 | 48 | 1104.0 |
| 20260503175518 | 16 | 166 | 11.3 | 17.7 | 0.00 | 0.00 | 0.00 | 45 | 1104.2 |
| 20260503175015 | 15 | 159 | 4.8 | 11.3 | 0.00 | 0.00 | 0.00 | 47 | 1104.3 |
| 20260503174512 | 13 | 165 | 4.8 | 9.7 | 0.00 | 0.00 | 0.00 | 53 | 1104.3 |
| 20260503174008 | 15 | 1 | 6.4 | 16.1 | 0.00 | 0.00 | 0.00 | 50 | 1104.2 |
| 20260503173503 | 14 | 169 | 6.4 | 11.3 | 0.00 | 0.00 | 0.00 | 47 | 1104.2 |
| 20260503173000 | 16 | 302 | 6.4 | 11.3 | 0.00 | 0.00 | 0.00 | 46 | 1104.5 |
| 20260503172458 | 15 | 9 | 4.8 | 8.0 | 0.00 | 0.00 | 0.00 | 46 | 1104.6 |
| 20260503171954 | 15 | 149 | 3.2 | 9.7 | 0.00 | 0.00 | 0.00 | 44 | 1104.6 |
| 20260503171451 | 13 | 284 | 6.4 | 9.7 | 0.00 | 0.00 | 0.00 | 44 | 1104.8 |
| 20260503170948 | 14 | 183 | 4.8 | 8.0 | 0.00 | 0.00 | 0.00 | 43 | 1104.7 |
| 20260503170444 | 13 | 154 | 4.8 | 8.0 | 0.00 | 0.00 | 0.00 | 45 | 1104.6 |
| 20260503150837 | 10 | 309 | 3.2 | 9.7 | 0.00 | 0.00 | 0.00 | 51 | 1105.2 |
| 20260503150333 | 10 | 78 | 1.6 | 8.0 | 0.00 | 0.00 | 0.00 | 53 | 1105.2 |
| 20260503140257 | 8 | 0 | 6.4 | 9.7 | 0.00 | 0.00 | 0.00 | 62 | 1104.9 |
| 20260503131227 | 7 | 49 | 0.0 | 9.7 | 0.00 | 0.00 | 0.00 | 71 | 1104.3 |
| 20260503130724 | 7 | 24 | 0.0 | 1.6 | 0.00 | 0.00 | 0.00 | 73 | 1104.7 |
| 20260503130221 | 7 | 356 | 1.6 | 3.2 | 0.00 | 0.00 | 0.00 | 72 | 1104.3 |
| 20260503120147 | 6 | 27 | 3.2 | 4.8 | 0.00 | 0.00 | 0.00 | 80 | 1104.6 |
| 20260503110615 | 6 | 25 | 0.0 | 1.6 | 0.00 | 0.00 | 0.00 | 80 | 1103.9 |
| 20260503110112 | 6 | 25 | 1.6 | 3.2 | 0.00 | 0.00 | 0.00 | 80 | 1103.7 |
| 20260503090502 | 6 | 28 | 0.0 | 0.0 | 0.00 | 0.00 | 0.00 | 79 | 1102.7 |